Simultaneous Nadir Overpasses (SNOs) Predictions

Prediction of SNOs between GOES-16 and TERRA Satellite Orbit:

Table of predicted SNOs for the next 14.0 days since TLE Epoch: 12/16/2022
Index Date Time (GOES-16) GOES-16 Lat,Lon TERRA Lat,Lon Distance(km) Time Diff (sec)
1 12/17/2022 15:02:28 -0.03, -75.20 -0.52, -72.92 259.61 80
2 12/18/2022 03:25:36 0.03, -75.19 -0.52, -77.89 307.42 80
3 12/20/2022 03:07:12 0.03, -75.20 0.28, -74.09 125.94 80
4 12/20/2022 15:30:13 -0.03, -75.22 0.78, -79.03 433.73 80
5 12/22/2022 15:11:49 -0.03, -75.23 -0.05, -75.23 1.76 80
6 12/24/2022 14:56:04 -0.03, -75.24 -0.82, -71.42 433.51 80
7 12/25/2022 03:19:13 0.03, -75.22 -0.21, -76.40 133.28 80
8 12/27/2022 03:00:48 0.02, -75.24 0.59, -72.59 301.45 80
9 12/27/2022 15:21:09 -0.02, -75.26 0.46, -77.53 257.88 80
10 12/29/2022 15:05:24 -0.02, -75.29 -0.35, -73.73 178.27 80
11 12/30/2022 03:28:32 0.02, -75.29 -0.73, -78.69 387.72 80
